Location: Unspecified
(32.5099°N, 80.0190°W)
Time: 08:18:05
(UTC-05:00)

CZ-3 Stage 3 - Visible Passes

Search period start: 21 February 2018 00:00
Search period end: 03 March 2018 00:00
Orbit: 436 x 34761 km, 31.0° (Epoch: 20 February)

Date Brightness Start Highest point End Pass type
(mag) Time Alt. Az. Time Alt. Az. Time Alt. Az.
22 Feb 7.0 02:51:40 10° SSW 03:10:20 12° S 12:22:00 10° E visible
23 Feb 10.2 06:24:54 10° SE 07:31:30 13° SE 08:09:07 10° ESE visible
23 Feb 2.0 19:20:07 10° W 19:24:11 53° SSW 19:25:19 29° SE visible
25 Feb 7.0 02:44:15 10° SSW 03:03:58 12° S 12:12:45 10° E visible
26 Feb 10.2 06:07:56 10° SE 07:23:06 14° SE 08:03:06 10° ESE visible
26 Feb 2.1 19:10:43 10° W 19:14:49 51° SSW 19:16:28 20° SE visible
28 Feb 7.0 02:38:18 10° S 02:59:09 11° S 12:03:32 10° E visible
01 Mar 10.3 05:51:27 10° SE 07:14:35 15° SE 07:56:34 10° ESE visible
01 Mar 2.2 19:01:20 10° W 19:05:27 48° SSW 19:07:38 14° ESE visible
